Regional Weather Roundup
Issued by NWS

Home | Current Version | Previous Version | Text Only | Print | Product List | Glossary Off
Versions: 1 2 3 4 5 6 7 8 9 10 11 12 13 14 15 16 17 18 19 20 21 22 23 24 25 26 27 28 29 30 31 32 33 34 35 36 37 38 39 40 41 42 43 44 45 46 47 48 49 50

000
ASUS45 KSLC 231310
RWRUT

UTAH REGIONAL WEATHER ROUNDUP
NATIONAL WEATHER SERVICE SALT LAKE CITY UT
700 AM MDT TUE SEP 23 2014

UTZ001>011-023>025-231400-

NORTHERN UTAH

CITY           SKY/WX    TMP DP  RH WIND       PRES   REMARKS
HILL AFB       CLEAR     60  49  66 E13       30.15S
LOGAN          CLEAR     52  48  86 CALM      30.15S
OGDEN          PTCLDY    58  50  75 S7        30.13R
PROVO AIRPORT  CLEAR     55  48  76 S10       30.18R
SALT LAKE CITY PTCLDY    59  52  77 SE6       30.13R
VERNAL         MOCLDY    55  48  77 NW3       30.20R
WENDOVER       CLEAR     55  50  82 NE3       30.13S
HEBER CITY     CLEAR     45  43  93 CALM      30.24R
WEST JORDAN    CLEAR     55  50  82 S3        30.16R

$$

UTZ012>022-026-027-231400-

SOUTHERN UTAH

CITY           SKY/WX    TMP DP  RH WIND       PRES   REMARKS
BRYCE CANYON   CLEAR     38  34  85 W9        30.36S WCI  31
CEDAR CITY     CLEAR     46  40  79 N5        30.23R
MILFORD        CLEAR     50  44  80 SW8       30.19R
MOAB/CYNLANDS  CLEAR     59  54  83 CALM      30.15R
PRICE          CLEAR     53  49  86 N5        30.24R
ST GEORGE      SUNNY     64  46  52 CALM      30.11R
KANAB            N/A     46  43  87 NE5       30.25R

$$

REGIONAL REPORTS     COLORADO/ARIZONA

CITY           SKY/WX    TMP DP  RH WIND       PRES   REMARKS
CRAIG, CO      CLOUDY    52  49  89 S3        30.25R
GRAND JUNCTION PTCLDY    59  51  75 S6        30.18S
RIFLE          PTCLDY    54  50  86 CALM      30.24R
MONTROSE       CLOUDY    53  48  83 E7        30.29R
CORTEZ         CLEAR     43  41  93 E3        30.27R
PAGE, AZ       CLEAR     65  44  46 CALM      30.16R
GRAND CANYON   CLEAR     37  35  92 CALM      30.32R
KINGMAN        CLEAR     58  37  45 S3        30.11R
FLAGSTAFF      CLEAR     42  39  89 CALM      30.34R

$$

REGIONAL REPORTS    NEVADA/IDAHO/WYOMING

CITY           SKY/WX    TMP DP  RH WIND       PRES   REMARKS
LAS VEGAS, NV  CLEAR     74  42  31 SW7       29.97R
ELY            CLEAR     45  42  89 SE10      30.25S
ELKO           PTCLDY    49  43  80 CALM      30.17R
POCATELLO, ID  CLEAR     45  45 100 CALM      30.15R
BURLEY         CLEAR     48  46  93 CALM      30.11R
EVANSTON, WY   MOCLDY    52  44  74 CALM      30.28R
ROCK SPRINGS   CLEAR     46  41  82 SW6       30.26R

$$



USA.gov is the U.S. government's official web portal to all federal, state and local government web resources and services.